User: anonymous   Login
Location: Vancouver
(49.2500°N, 123.1330°W)
Time: 17:11:53
(UTC-07:00)
Language:

Cosmos 1939 Rocket - Orbit

View from above orbital plane
View from above orbital plane
View from above satellite
View from above satellite

Ground track
Ground track

The orbit data is extracted from the following two-line orbital elements,

1 19046U 88032B   15148.64152942  .00001020  00000-0  83174-4 0  9993
2 19046 097.6163 201.5766 0040286 009.7474 350.4522 15.01088729459990
Epoch (UTC): 28 May 2015 15:23:48
Eccentricity: 0.0040286
inclination: 97.6163°
perigee height: 535 km
apogee height: 591 km
right ascension of ascending node: 201.5766°
argument of perigee: 9.7474°
revolutions per day: 15.01088729
mean anomaly at epoch: 350.4522°
orbit number at epoch: 45999

The dashed part of the orbit path shows where the satellite is in the earth's shadow,  

DLR